Location: *
(43.4667°N, 11.6833°E)
Time: 00:20:42
(UTC+00:00)

Cosmos 2360 Rocket - Pass Details

Date: 19 July 2019
Orbit: 835 x 844 km, 71.0° (Epoch: 23 August)

Event Time Altitude Azimuth Distance (km) Brightness Sun altitude
Rises 20:41:27 0° 210° (SSW) 3,380 5.1 -16.2°
Reaches altitude 10° 20:43:54 10° 213° (SSW) 2,448 4.4 -16.5°
Maximum altitude 20:49:30 69° 297° (WNW) 894 2.5 -17.1°
Drops below altitude 10° 20:55:08 10° 21° (NNE) 2,458 5.1 -17.7°
Sets 20:57:36 0° 24° (NNE) 3,395 5.8 -18.0°
